Location: Beneden-Haastrecht
(52.0012°N, 4.7557°E)
Time: 03:40:39
(UTC+00:00)

FALCON 9 DEB - Pass Details

Date: 24 October 2020
Orbit: 427 x 438 km, 53.0° (Epoch: 27 November)

Event Time Altitude Azimuth Distance (km) Brightness Sun altitude
Rises 18:45:30 0° 277° (W) 2,397 8.4 -21.9°
Reaches altitude 10° 18:47:37 10° 279° (W) 1,528 7.0 -22.2°
Enters shadow 18:50:25 55° 298° (WNW) 520 3.7 -22.6°
